Location: Peterborough
(44.3091°N, 78.3197°W)
Time: 13:16:49
(UTC-04:00)

Tiros 1 despin weight - Pass Details

Date: 30 March 2023
Orbit: 586 x 633 km, 48.2° (Epoch: 03 June)

Event Time Altitude Azimuth Distance (km) Brightness Sun altitude
Rises 23:02:24 0° 282° (WNW) 2,810 ? -33.0°
Reaches altitude 10° 23:04:44 10° 288° (WNW) 1,913 ? -33.2°
Enters shadow 23:06:09 20° 295° (WNW) 1,391 ? -33.4°
